Flag for Thailand Weather past 2 weeks in Phuket, Thailand

Now
84 °F

Broken clouds.


Feels Like: 92 °F
Forecast: 81 / 87 °F
Wind: 5 mph from Northeast

Location: Phuket Airport

Current Time: Aug 2, 2015 at 11:30:18 AM

Latest Report: Aug 2, 2015 at 10:30 AM


Visibility: N/A

Pressure: 29.92 "Hg

Humidity: 74%

Dew point: 75 °F

Location of PhuketLocation

Historic Weather in Phuket — Graph

°F

Phuket temperature yesterday

Maximum temperature yesterday: 84 °F (at 9:00 AM)
Minimum temperature yesterday: 75 °F (at 2:30 AM)
Average temperature yesterday: 79 °F

Past Weeks' High & Low Weather Summary

 TemperatureHumidityPressure
High91 °F (Jul 18, 12:00 PM)94% (Jul 19, 10:30 PM)29.95 "Hg (Jul 19, 10:30 PM)
Low73 °F (Jul 20, 11:30 PM)44% (Jul 22, 2:30 PM)29.77 "Hg (Jul 18, 3:30 PM)
Average81 °F79%29.87 "Hg
* Reported Jul 18 9:00 AM — Aug 2 9:30 AM, Phuket, Weather by CustomWeather, © 2015

Note: Actual official high and low records may vary slightly from our data, if they occured in-between our weather recording intervals... More about our weather records

Advertising

Phuket weather history for previous 24 hours

 ConditionsComfort  
Time TempWeatherWind HumidityBarometerVisibility
9:30 AM
Sun, Aug 2
82 °FBroken clouds.3 mph79%29.92 "HgN/A
9:00 AM81 °FBroken clouds.6 mph79%29.92 "HgN/A
8:30 AM79 °FBroken clouds.No wind84%29.92 "Hg5 mi
8:00 AM79 °FBroken clouds.10 mph89%29.92 "Hg5 mi
7:30 AM77 °FBroken clouds.No wind89%29.89 "Hg5 mi
7:00 AM77 °FBroken clouds.No wind89%29.89 "Hg5 mi
6:30 AM75 °FBroken clouds.No wind94%29.89 "Hg5 mi
6:00 AM75 °FPassing clouds.No wind94%29.89 "Hg5 mi
5:30 AM75 °FPassing clouds.No wind94%29.86 "Hg5 mi
4:30 AM75 °FPassing clouds.No wind89%29.86 "Hg5 mi
4:00 AM75 °FPassing clouds.No wind89%29.86 "Hg5 mi
3:30 AM77 °FPassing clouds.5 mph89%29.89 "Hg5 mi
3:00 AM77 °FPassing clouds.No wind94%29.89 "Hg5 mi
2:00 AM77 °FPassing clouds.No wind89%29.92 "Hg5 mi
1:30 AM77 °FPassing clouds.No wind89%29.92 "Hg5 mi
1:00 AM77 °FPassing clouds.No wind89%29.92 "Hg5 mi
12:30 AM77 °FPassing clouds.No wind89%29.92 "Hg5 mi
12:00 AM77 °FPassing clouds.No wind94%29.92 "Hg5 mi
11:30 PM
Sat, Aug 1
77 °FPassing clouds.No wind94%29.92 "Hg5 mi
11:00 PM77 °FPassing clouds.No wind94%29.92 "Hg5 mi
10:30 PM77 °FPassing clouds.No wind94%29.92 "Hg5 mi
10:00 PM77 °FPassing clouds.No wind94%29.92 "Hg5 mi
9:30 PM77 °FPassing clouds.No wind94%29.92 "Hg5 mi
9:00 PM77 °FPartly cloudy.No wind94%29.89 "Hg5 mi
8:30 PM79 °FPartly cloudy.No wind89%29.89 "Hg5 mi
8:00 PM79 °FPassing clouds.2 mph89%29.86 "Hg5 mi
7:30 PM81 °FPassing clouds.3 mph79%29.86 "Hg5 mi
7:00 PM79 °FPassing clouds.3 mph84%29.86 "Hg5 mi
6:30 PM81 °FPartly sunny.1 mph84%29.86 "Hg5 mi
6:00 PM81 °FPartly sunny.6 mph79%29.83 "Hg5 mi
5:30 PM82 °FPartly sunny.6 mph79%29.83 "Hg5 mi
5:00 PM82 °FPartly sunny.2 mph79%29.83 "Hg5 mi
4:30 PM82 °FPartly sunny.5 mph74%29.83 "Hg5 mi
4:00 PM82 °FPartly sunny.5 mph74%29.83 "Hg5 mi
3:30 PM84 °FPartly sunny.5 mph74%29.86 "Hg5 mi
3:00 PM82 °FPartly sunny.5 mph74%29.86 "Hg5 mi
2:30 PM82 °FPartly sunny.3 mph74%29.86 "Hg5 mi
2:00 PM82 °FBroken clouds.2 mph79%29.89 "Hg6 mi
1:30 PM79 °FBroken clouds.2 mph89%29.89 "Hg5 mi
1:00 PM77 °FLight rain. Broken clouds.2 mph89%29.92 "Hg4 mi
12:30 PM75 °FThunderstorms. Broken clouds.3 mph89%29.92 "Hg3 mi
11:30 AM77 °FThunderstorms. Broken clouds.No wind94%29.92 "Hg4 mi
11:00 AM77 °FThunderstorms. Broken clouds.No wind94%29.92 "Hg4 mi
Weather by CustomWeather, © 2015

See weather overviewHow to use our weather pages